Torna al catalogo

FENGYUN 1C DEB

AttivoSSO
NORAD 30294·DEBRIS·🇨🇳 China

Lanciato May 10, 1999 da Taiyuan Satellite Launch Center

Loading…

Prossimi Passaggi (prossime 24 ore)

TLE

AggiornatoSource: Space-Track

Epoca: Sep 13, 2026, 11:20 UTC

1 30294U 99025ZF  26256.47224351  .00000357  00000-0  11378-3 0  9990
2 30294  98.3791 241.6155 0195910 209.0351 305.7359 14.35473828 24762

Traccia FENGYUN 1C DEB in tempo reale con AllMySat

Download on the App Store